Current Version              Previous Version:    01  02  03  04  05  06  07  08  09  10  11  12  13  14  15  16  17  18  19  20  21  22  23  24  25  26  27  28  29  30  
   31  32  33  34  35  36  37  38  39  40  41  42  43  44  45  46  47  48  49  50  51  52  53  54  55  56  57  58  59  60  

[Printable]
089
ASUS44 KEWX 200110
RWRTX
SOUTH TEXAS REGIONAL WEATHER ROUNDUP
NATIONAL WEATHER SERVICE AUSTIN/SAN ANTONIO TX
800 PM CDT FRI SEP 19 2014

NOTE: "FAIR" INDICATED FEW OR NO CLOUDS BELOW 12,000 FEET WITH NO
SIGNIFICANT WEATHER AND/OR OBSTRUCTIONS TO VISIBILITY.

* - THESE STATIONS ARE NOT NWS OR FAA STATIONS...AND ARE NOT SUBJECT
    TO NWS AND FAA QUALITY CONTROL.

TXZ171-172-183>190-200200-
TEXAS HILL COUNTRY AND EDWARDS PLATEAU

CITY           SKY/WX    TMP DP  RH WIND       PRES   REMARKS
JUNCTION       MOCLDY    77  70  79 E12       29.92R
*LLANO         MOCLDY    75  75 100 CALM      29.94R
BURNET         MOCLDY    78  71  79 E3        29.93S
*HORSESHOE BAY MOCLDY    76  76 100 CALM      29.91R
*KERRVILLE     CLEAR     76  72  85 E5        29.93R
*FREDERICKSBRG MOCLDY    74  71  91 CALM      29.94R
*ROCKSPRINGS   LGT RAIN  73  72  94 E5        29.96R
*BOERNE STAGE  CLEAR     77  68  73 E3        29.92R
*CASTROVILLE   CLEAR     83  67  59 E12       29.89R
HONDO          CLEAR     84  72  67 E16       29.89R
*UVALDE        CLEAR     85  74  69 E10       29.86R HX  93
DEL RIO        PTCLDY    86  70  58 S12       29.82R HX  90
LAUGHLIN AFB   PTCLDY    86  72  62 SE7       29.83R HX  91
CARRIZO SPRGS  CLOUDY    86  72  62 E13G18    29.81R HX  92
$$

TXZ173-191>194-202-209-217>225-228-200200-
CENTRAL AND SOUTH CENTRAL TEXAS

CITY           SKY/WX    TMP DP  RH WIND       PRES   REMARKS
GEORGETOWN     PTCLDY    81  72  74 E5        29.89S
AUSTIN/BERGSTM MOCLDY    77  72  84 CALM      29.87F
AUSTIN/MABRY   MOCLDY    78  71  79 E3        29.89S
*AUSTIN/EXEC   PTCLDY    77  73  88 CALM      29.89S
*LAGO VISTA    PTCLDY    78  72  81 E7        29.91S
SAN MARCOS     CLEAR     79  70  73 E7        29.88S
NEW BRAUNFELS  MOCLDY    81  72  74 SE13      29.87R
RANDOLPH AFB   PTCLDY    80  73  77 E7        29.88R
PT SAN ANTONIO PTCLDY    83  70  64 E10       29.86R
SAN ANTONIO    MOCLDY    82  72  71 E13       29.88R
STINSON FIELD  CLEAR     83  70  64 E9        29.86R
*PLEASANTON    CLEAR     82  71  68 E9        29.87R
*LA GRANGE     MOCLDY    82  76  82 E5        29.86S HX  90
*GIDDINGS      CLOUDY    80  73  78 E5        29.92R
*GONZALES      MOCLDY    78  77  96 CALM      29.86S
$$

TXZ163>164-176>182-195>201-210>213-226-227-235-200200-
SOUTHEAST TEXAS

CITY           SKY/WX    TMP DP  RH WIND       PRES   REMARKS
COLLEGE STN    MOCLDY    77  75  93 E6        29.89S
*BRYAN         MOCLDY   N/A N/A N/A E3        29.90R
*CALDWELL      MOCLDY    75  73  94 NE3       29.92S
*CROCKETT      MOCLDY    79  79 100 CALM      29.94R FOG
*BRENHAM       MOCLDY    80  75  83 CALM      29.89S
HUNTSVILLE     PTCLDY    79  71  76 E5        29.91R
CONROE         PTCLDY    75  73  93 CALM      29.91R
HOUSTON BUSH   MOCLDY    78  74  87 SE8       29.89R
HOUSTON HOBBY  MOCLDY    78  74  87 E3        29.89R
*HOUSTON SW AP PTCLDY    71  68  91 E5        29.90R
PEARLAND       PTCLDY    79  75  87 E5        29.90S
HOUSTON HOOKS  PTCLDY    79  73  82 E3        29.89R
ELLINGTON FLD  MOCLDY    77  75  94 CALM      29.91R
SUGAR LAND     PTCLDY    80  73  79 E7        29.88R
*HOUSTON EXEC  CLOUDY    81  81 100 E6        29.90R HX  91
*CLEVELAND MUN PTCLDY    75  74  95 CALM      29.92S
*WHARTON       MOCLDY    77  73  88 E5        29.89R
$$

TXZ214>216-236>238-200200-
THE UPPER TEXAS COAST

CITY           SKY/WX    TMP DP  RH WIND       PRES   REMARKS
*ORANGE        PTCLDY   N/A N/A N/A CALM      29.92S
PORT ARTHUR    CLOUDY    79  74  84 SE7       29.90S
GALVESTON      MOCLDY    80  74  81 E10       29.90R
ANGLETON       LGT RAIN  78  75  90 E5        29.89R
*BAY CITY      MOCLDY   N/A N/A N/A E6        29.88R
PALACIOS       MOCLDY    79  75  87 E10       29.87R
$$

TXZ229>234-239>247-200200-
TEXAS COASTAL BEND AND RIO GRANDE PLAINS

CITY           SKY/WX    TMP DP  RH WIND       PRES   REMARKS
VICTORIA       MOCLDY    81  75  82 E7        29.87R
*BEEVILLE      MOCLDY    80  73  79 E8        29.86R
ROCKPORT       MOCLDY    81  75  82 E14       29.85R
*PORT ARANSAS  MOCLDY    81  76  85 E13       29.85R
*PORT LAVACA   LGT RAIN  79  74  85 E12       29.86R
*INGLESIDE     MOCLDY    83  75  77 E9        29.84S HX  90
CORPUS CHRISTI MOCLDY    82  77  84 E13       29.84R HX  90
CORPUS NAS     MOCLDY    81  79  94 E14       29.84R HX  90
*ROBSTOWN      NOT AVBL
ALICE          MOCLDY    83  77  82 E12       29.83R HX  92
KINGSVILLE NAS PTCLDY    80  80 100 E12       29.83R
COTULLA        CLEAR     86  71  60 E12G23    29.82R HX  91
*FAITH RANCH   PTCLDY    82  72  69 S6        29.81R
LAREDO         PTCLDY    90  72  55 SE7       29.83R HX  97
$$

TXZ248>255-200200-
DEEP SOUTH TEXAS

CITY           SKY/WX    TMP DP  RH WIND       PRES   REMARKS
BROWNSVILLE    MOCLDY    84  79  85 SE8       29.81R HX  96
PORT ISABEL    MOCLDY    83  77  82 SE10      29.81R HX  92
*SOUTH PADRE   MOCLDY    84  79  84 SE12      29.82R HX  96
HARLINGEN      CLOUDY    84  78  82 SE14      29.80R HX  95
*HEBBRONVILLE  CLOUDY    82  76  83 E9        29.85R HX  90
MCALLEN        TSTM      82  79  90 E12       29.81S FOG     HX  92
*WESLACO       CLOUDY    84  76  76 SE8       29.80R HX  93
FALFURRIAS     PTCLDY   N/A N/A N/A E8        29.81R
EDINBURG       MOCLDY    85  77  76 E8        29.80S HX  96
*ZAPATA        MOCLDY    89  70  53 E6        29.79R HX  94
$$

TXZ213>215-236>238-242>244-246-247-251-254-255-200200-
CMAN STATIONS

STATION/POSITION TIME  TEMP    WIND        PRES    WAVE
                       AIR SEA DIR/SP/G            HT/PER
                 (UTC) (F)     (DEG/KT/KT) (MB)    (FT/S)
SABINE PASS      0100   81 82  130/ 10/ 14 1012.6
SEA RIM ST PARK  0000   79     100/  8/  9 1013.0
NORTH JETTY/GLS  0100   80 83                N/A
EAGLE POINT      0100   80 81  110/ 11/ 13 1012.1
MORGANS POINT    0100   78      60/  9/ 10 1012.2
MISSION/ARANSAS  0000          100/ 14     1011.0
PORT O`CONNOR    0100           80/ 14/ 17   N/A
PORT ARANSAS     0000   81 85   90/ 17/ 19 1010.6
MALAQUITE BEACH  0100   82 86   90/ 15/ 19 1009.7
BAFFIN BAY       0100   83 88  100/ 15/ 19 1009.8
PORT ISABEL      0100   83 85  120/  9/ 12 1009.9
$$

GMZ080-GMZ150>470-200200-
OFFSHORE BUOY REPORTS

STATION/POSITION TIME  TEMP    WIND        PRES    WAVE
                       AIR SEA DIR/SP/G            HT/PER
                 (UTC) (F)     (DEG/KT/KT) (MB)    (FT/S)
20 E GALVESTON   0100   80 83  100/ 14/ 14 1011.5    2/ 3
90 E PT ARANSAS  0100   82 85   90/ 17/ 21 1011.2    3/ 4
35 NE PT MANSFLD 0100   83 85   90/ 16/ 19 1009.5    3/ 6
200 E PT ISABEL  0100   80 86  130/  4/  4 1010.9    2/ 5
$$